�_�ʐ�͌���@�\�w���ɂ��Y���u�C�̈ړ���,,,,,,,,,,
�@,Time,Time int.,,Lat.,,Long.,,Direction,Speed,
Date(yyyy/mm/dd),(hh:mm),(hour),(min),(deg),(min),(deg),(min),(deg),(m/s),(knots)
2005/11/16,9:30,0,,36,46.014,137,13.146,,,
2005/11/16,9:35,0,5,36,46.038,137,13.152,13.55,0.13,0.25
2005/11/16,9:40,0,5,36,46.074,137,13.164,16.77,0.21,0.4
2005/11/16,9:45,0,5,36,46.098,137,13.158,346.37,0.13,0.25
2005/11/16,9:50,0,5,36,46.122,137,13.17,25.77,0.14,0.27
2005/11/16,9:55,0,5,36,46.146,137,13.152,324.01,0.15,0.3
2005/11/16,10:00,0,5,36,46.17,137,13.158,14.49,0.12,0.23
2005/11/16,10:05,0,5,36,46.2,137,13.17,21.37,0.16,0.32
2005/11/16,10:10,0,5,36,46.236,137,13.176,8.92,0.19,0.37
2005/11/16,10:15,0,5,36,46.248,137,13.188,55.52,0.07,0.14
2005/11/16,10:20,0,5,36,46.272,137,13.2,27.37,0.13,0.25
2005/11/16,10:25,0,5,36,46.29,137,13.212,37.37,0.1,0.19
2005/11/16,10:30,0,5,36,46.32,137,13.224,20.36,0.17,0.33
2005/11/16,10:35,0,5,36,46.338,137,13.236,34.62,0.1,0.2
2005/11/16,10:40,0,5,36,46.368,137,13.254,29.11,0.18,0.36
2005/11/16,10:45,0,5,36,46.404,137,13.272,24.33,0.22,0.42
2005/11/16,10:50,0,5,36,46.416,137,13.278,42.4,0.04,0.09
2005/11/16,10:55,0,5,36,46.44,137,13.284,15.57,0.11,0.21
2005/11/16,11:00,0,5,36,46.488,137,13.302,19.29,0.27,0.52
2005/11/16,11:05,0,5,36,46.494,137,13.302,180.27,0,0.01
2005/11/16,11:10,0,5,36,46.536,137,13.332,34.34,0.26,0.51
2005/11/16,11:15,0,5,36,46.548,137,13.326,317.49,0.04,0.09
2005/11/16,11:20,0,5,36,46.584,137,13.344,26.28,0.2,0.39
2005/11/16,11:25,0,5,36,46.62,137,13.356,18.21,0.19,0.37
2005/11/16,11:30,0,5,36,46.65,137,13.368,22.48,0.16,0.3


�A,Time,Time int.,,Lat.,,Long.,,Direction,Speed,
Date(yyyy/mm/dd),(hh:mm),(hour),(min),(deg),(min),(deg),(min),(deg),(m/s),(knots)
2005/11/16,11:45,0,,36,46.074,137,13.404,,,
2005/11/16,11:50,0,5,36,46.128,137,13.416,11.5,0.3,0.58
2005/11/16,11:55,0,5,36,46.164,137,13.428,18.21,0.19,0.37
2005/11/16,12:00,0,5,36,46.212,137,13.44,13.12,0.26,0.51
2005/11/16,12:05,0,5,36,46.242,137,13.452,22.48,0.16,0.3
2005/11/16,12:10,0,5,36,46.284,137,13.458,7.75,0.22,0.43
2005/11/16,12:15,0,5,36,46.308,137,13.47,29.15,0.12,0.24
2005/11/16,12:20,0,5,36,46.35,137,13.476,7.75,0.22,0.43
2005/11/16,12:25,0,5,36,46.38,137,13.482,11.67,0.15,0.28
2005/11/16,12:30,0,5,36,46.422,137,13.494,15.26,0.23,0.44
2005/11/16,12:35,0,5,36,46.446,137,13.494,359.95,0.11,0.21
2005/11/16,12:40,0,5,36,46.476,137,13.5,11.67,0.15,0.28
2005/11/16,12:45,0,5,36,46.512,137,13.506,9.32,0.18,0.36
2005/11/16,12:50,0,5,36,46.524,137,13.512,42.4,0.04,0.09
2005/11/16,12:55,0,5,36,46.548,137,13.518,15.56,0.11,0.21
2005/11/16,13:00,0,5,36,46.566,137,13.53,43.43,0.12,0.23
2005/11/16,13:05,0,5,36,46.59,137,13.536,23.1,0.14,0.26
2005/11/16,13:10,0,5,36,46.608,137,13.548,43.43,0.12,0.23
2005/11/16,13:15,0,5,36,46.614,137,13.554,75.7,0.05,0.11
2005/11/16,13:20,0,5,36,46.638,137,13.566,33.64,0.15,0.29
2005/11/16,13:25,0,5,36,46.65,137,13.578,58.62,0.1,0.19
2005/11/16,13:30,0,5,36,46.656,137,13.59,80.7,0.08,0.16
2005/11/16,13:35,0,5,36,46.668,137,13.59,24.85,0.06,0.11
2005/11/16,13:45,0,10,36,46.698,137,13.602,34.42,0.07,0.15
2005/11/16,13:50,0,5,36,46.71,137,13.626,71.75,0.14,0.27
2005/11/16,13:55,0,5,36,46.722,137,13.632,44.36,0.06,0.12
2005/11/16,14:00,0,5,36,46.752,137,13.644,25.03,0.17,0.33
2005/11/16,14:05,0,5,36,46.752,137,13.662,106.7,0.11,0.21
2005/11/16,14:10,0,5,36,46.77,137,13.68,51.73,0.13,0.25
2005/11/16,14:15,0,5,36,46.812,137,13.686,10.49,0.23,0.45


�B,Time,Time int.,,Lat.,,Long.,,Direction,Speed,
Date(yyyy/mm/dd),(hh:mm),(hour),(min),(deg),(min),(deg),(min),(deg),(m/s),(knots)
2005/11/16,9:35,0,,36,46.002,137,13.542,,,
2005/11/16,9:40,0,5,36,46.05,137,13.56,18.19,0.29,0.55
2005/11/16,9:45,0,5,36,46.08,137,13.578,29.11,0.18,0.36
2005/11/16,9:50,0,5,36,46.116,137,13.602,31.09,0.23,0.45
2005/11/16,9:55,0,5,36,46.14,137,13.632,50.36,0.19,0.38
2005/11/16,10:05,0,5,36,46.182,137,13.692,52.78,0.37,0.73
2005/11/16,10:10,0,5,36,46.188,137,13.722,88.49,0.15,0.29
2005/11/16,10:15,0,5,36,46.224,137,13.74,25.27,0.21,0.41
2005/11/16,10:20,0,5,36,46.236,137,13.776,77.09,0.18,0.36
2005/11/16,10:25,0,5,36,46.26,137,13.8,46,0.17,0.32
2005/11/16,10:30,0,5,36,46.272,137,13.83,71.7,0.16,0.3
2005/11/16,10:35,0,5,36,46.29,137,13.842,34.61,0.1,0.2
2005/11/16,10:40,0,5,36,46.308,137,13.866,54.08,0.15,0.29
2005/11/16,10:45,0,5,36,46.314,137,13.896,85.31,0.15,0.29
2005/11/16,10:50,0,5,36,46.326,137,13.932,79.64,0.18,0.35
2005/11/16,10:55,0,5,36,46.356,137,13.962,45.99,0.21,0.4
2005/11/16,11:00,0,5,36,46.356,137,13.992,105.53,0.15,0.3
2005/11/16,11:05,0,5,36,46.374,137,14.028,68.68,0.19,0.37
2005/11/16,11:10,0,5,36,46.38,137,14.058,91.68,0.15,0.29
2005/11/16,11:15,0,5,36,46.398,137,14.082,59.67,0.14,0.27
2005/11/16,11:20,0,5,36,46.41,137,14.118,79.63,0.18,0.35
2005/11/16,11:25,0,5,36,46.416,137,14.136,92.82,0.09,0.17


�C,Time,Time int.,,Lat.,,Long.,,Direction,Speed,
Date(yyyy/mm/dd),(hh:mm),(hour),(min),(deg),(min),(deg),(min),(deg),(m/s),(knots)
2005/11/16,11:45,0,,36,46.044,137,13.452,,,
2005/11/16,11:50,0,5,36,46.11,137,13.494,29.65,0.42,0.82
2005/11/16,11:55,0,5,36,46.152,137,13.494,359.96,0.22,0.42
2005/11/16,12:00,0,5,36,46.188,137,13.494,359.96,0.18,0.35
2005/11/16,12:05,0,5,36,46.248,137,13.524,24.33,0.36,0.7
2005/11/16,12:10,0,5,36,46.278,137,13.536,22.48,0.16,0.3
2005/11/16,12:15,0,5,36,46.32,137,13.542,7.75,0.22,0.43
2005/11/16,12:20,0,5,36,46.356,137,13.578,44.65,0.25,0.49
2005/11/16,12:25,0,5,36,46.386,137,13.572,348.24,0.15,0.28
2005/11/16,12:30,0,5,36,46.422,137,13.584,18.21,0.19,0.37
2005/11/16,12:35,0,5,36,46.464,137,13.602,22.28,0.24,0.46
2005/11/16,12:40,0,5,36,46.482,137,13.608,23.12,0.08,0.15
2005/11/16,12:50,0,10,36,46.542,137,13.626,17.23,0.15,0.29
2005/11/16,12:55,0,5,36,46.566,137,13.644,39.92,0.14,0.27
2005/11/16,13:00,0,5,36,46.584,137,13.656,43.43,0.12,0.23
2005/11/16,13:05,0,5,36,46.59,137,13.692,86.13,0.2,0.39
2005/11/16,13:10,0,5,36,46.608,137,13.698,31.26,0.1,0.2
2005/11/16,13:15,0,5,36,46.626,137,13.716,52.14,0.14,0.28
2005/11/16,13:25,0,10,36,46.644,137,13.758,75.87,0.13,0.26
2005/11/16,13:30,0,5,36,46.686,137,13.776,25.54,0.26,0.51
2005/11/16,13:35,0,5,36,46.698,137,13.794,65.82,0.12,0.24
2005/11/16,13:40,0,5,36,46.704,137,13.818,87.21,0.13,0.26
2005/11/16,13:45,0,5,36,46.716,137,13.83,58.99,0.08,0.16
2005/11/16,13:50,0,5,36,46.728,137,13.848,66.93,0.11,0.22
2005/11/16,13:55,0,5,36,46.764,137,13.872,34.51,0.23,0.45
2005/11/16,14:00,0,5,36,46.782,137,13.884,41.91,0.11,0.21
2005/11/16,14:05,0,5,36,46.794,137,13.914,74.94,0.17,0.32
2005/11/16,14:10,0,5,36,46.812,137,13.932,51.72,0.13,0.25
2005/11/16,14:15,0,5,36,46.842,137,13.95,33.41,0.18,0.36
2005/11/16,14:20,0,5,36,46.854,137,13.956,44.36,0.06,0.12
